Ellensburg, WA
on Saturday, January 26, 2013

Saturday
Previous Day Next Day
Daily Summary
 ActualAverage (KYKM)Record (KYKM)
Temperature
Mean Temperature °F 33°F  
Max Temperature 32°F 41°F 58°F (1971)
Min Temperature 28°F 25°F -19°F (1957)
Degree Days
Heating Degree Days 35 32  
Month to date heating degree days 898  
Since 1 July heating degree days 3561  
Cooling Degree Days 0 0  
Month to date cooling degree days 0  
Year to date cooling degree days 0  
Moisture
Dew Point 26°F   
Average Humidity 85    
Maximum Humidity 93    
Minimum Humidity 79    
Precipitation
Precipitation 0.00 in 0.03 in 0.60 in (1970)
Month to date precipitation 0.99  
Year to date precipitation 0.99  
Snow
Snow 0.00 in 0.10 in 4.10 in (1969)
Month to date snowfall 4.7  
Year to date snowfall 4.7  
Since 1 July snowfall 17.7  
Snow Depth in   
Wind
Wind Speed 2 mph   
Max Wind Speed 6 mph   
Max Gust Speed mph   
Visibility 3 miles   
Events Fog , Snow   

Key: T is trace of precipitation, MM is missing value
Source: NWS Daily Summary
Time(PST)TemperatureDew PointHumidity Pressure Visibility Wind DirectionWind SpeedGust SpeedPrecipitationEvents Conditions
12:53 AM 30.0°F 26.1°F 85% 29.97 in 0.2 miles East 3.5 mph - N/A Fog Light Freezing Fog
1:53 AM 30.0°F 27.0°F 88% 29.96 in 0.2 miles Calm Calm - N/A Fog Light Freezing Fog
2:11 AM 30.2°F 26.6°F 86% 29.91 in 1.2 miles Calm Calm - N/A   Overcast
2:20 AM 30.2°F 26.6°F 86% 29.91 in 0.8 miles Calm Calm - N/A   Overcast
2:39 AM 30.2°F 26.6°F 86% 29.91 in 1.0 miles NNE 3.5 mph - N/A   Overcast
2:53 AM 30.0°F 26.1°F 85% 29.96 in 1.8 miles Calm Calm - N/A   Overcast
3:23 AM 30.2°F 26.6°F 86% 29.91 in 1.0 miles Calm Calm - N/A   Overcast
3:45 AM 30.2°F 24.8°F 80% 29.90 in 1.8 miles NNE 5.8 mph - N/A   Haze
3:53 AM 30.0°F 25.0°F 82% 29.95 in 1.5 miles NNE 4.6 mph - N/A   Haze
4:31 AM 28.4°F 24.8°F 86% 29.90 in 2.5 miles NNE 3.5 mph - N/A   Overcast
4:53 AM 28.9°F 25.0°F 85% 29.95 in 3.0 miles NNE 3.5 mph - N/A   Overcast
5:04 AM 28.4°F 24.8°F 86% 29.90 in 2.5 miles Calm Calm - N/A   Overcast
5:31 AM 28.4°F 24.8°F 86% 29.90 in 1.0 miles North 3.5 mph - N/A   Overcast
5:39 AM 28.4°F 24.8°F 86% 29.89 in 0.5 miles NNE 5.8 mph - N/A Fog Light Freezing Fog
5:53 AM 28.9°F 25.0°F 85% 29.94 in 1.0 miles North 3.5 mph - N/A   Overcast
6:01 AM 28.4°F 24.8°F 86% 29.89 in 1.2 miles Calm Calm - N/A   Overcast
6:18 AM 28.4°F 26.6°F 93% 29.89 in 1.0 miles Calm Calm - N/A   Overcast
6:34 AM 28.4°F 24.8°F 86% 29.89 in 1.2 miles Calm Calm - N/A   Overcast
6:53 AM 28.9°F 25.0°F 85% 29.95 in 0.8 miles Calm Calm - N/A   Overcast
7:40 AM 28.4°F 24.8°F 86% 29.90 in 1.0 miles ENE 4.6 mph - N/A   Haze
7:48 AM 28.4°F 24.8°F 86% 29.90 in 0.5 miles NE 5.8 mph - N/A Fog Light Freezing Fog
7:53 AM 28.9°F 25.0°F 85% 29.96 in 0.2 miles ENE 4.6 mph - N/A Fog Light Freezing Fog
8:23 AM 28.4°F 26.6°F 93% 29.91 in 1.2 miles Calm Calm - N/A   Overcast
8:53 AM 30.0°F 25.0°F 82% 29.96 in 3.0 miles Calm Calm - N/A   Haze
9:53 AM 30.0°F 25.0°F 82% 29.97 in 6.0 miles Calm Calm - N/A   Haze
10:53 AM 30.0°F 25.0°F 82% 29.98 in 9.0 miles Calm Calm - N/A   Overcast
11:53 AM 30.9°F 26.1°F 82% 29.97 in 8.0 miles Calm Calm - N/A   Overcast
12:42 PM 30.2°F 26.6°F 86% 29.90 in 1.8 miles SE 3.5 mph - 0.00 in Snow Light Snow
12:53 PM 30.9°F 26.1°F 82% 29.95 in 2.0 miles SE 3.5 mph - 0.00 in Snow Light Snow
1:01 PM 30.2°F 26.6°F 86% 29.90 in 6.0 miles SE 4.6 mph - 0.00 in   Haze
1:17 PM 32.0°F 26.6°F 80% 29.90 in 8.0 miles Calm Calm - 0.00 in   Overcast
1:53 PM 32.0°F 26.1°F 79% 29.94 in 10.0 miles Calm Calm - 0.00 in   Overcast
2:53 PM 32.0°F 26.1°F 79% 29.94 in 10.0 miles Calm Calm - N/A   Overcast
3:53 PM 32.0°F 26.1°F 79% 29.95 in 10.0 miles North 3.5 mph - N/A   Overcast
4:44 PM 30.2°F 26.6°F 86% 29.90 in 8.0 miles North - - N/A   Overcast
4:53 PM 30.9°F 26.1°F 82% 29.96 in 8.0 miles Calm Calm - N/A   Overcast
5:53 PM 30.9°F 26.1°F 82% 29.96 in - Calm Calm - N/A   Overcast
6:53 PM 30.9°F 27.0°F 85% 29.98 in - Calm Calm - N/A   Overcast
7:53 PM 30.0°F 26.1°F 85% 29.98 in - Calm Calm - N/A   Overcast
8:53 PM 30.0°F 26.1°F 85% 29.99 in - Calm Calm - N/A   Overcast
9:53 PM 30.0°F 27.0°F 88% 30.00 in - Calm Calm - N/A   Overcast
10:53 PM 30.0°F 27.0°F 88% 30.01 in - Calm Calm - N/A   Overcast
11:53 PM 30.0°F 27.0°F 88% 30.01 in - Calm Calm - N/A   Overcast
Moon Phase
Jan. 26 Jan. 26 Feb. 03 Feb. 10 Feb. 17
Sunrise:07:33 AM (PST) Moon Rise:04:59 PM (PST)1/26
Sunset:04:56 PM (PST) Moon Set:06:52 AM (PST)1/26

Copyright © 2014 The Weather Underground, Inc.